Regional Weather Roundup
Issued by NWS Lake Charles, LA

Home | Current Version | Previous Version | Text Only | Print | Product List | Glossary On
Versions: 1 2 3 4 5 6 7 8 9 10 11 12 13 14 15 16 17 18 19 20 21 22 23 24 25 26 27 28 29 30 31 32 33 34 35 36 37 38 39 40 41 42 43 44 45 46 47 48 49 50
000
ASUS44 KLCH 231110
RWRLCH
RWRLCH
REGIONAL WEATHER ROUNDUP
NATIONAL WEATHER SERVICE LAKE CHARLES LA
600 AM CDT TUE SEP 23 2014

Note: "fair" indicates few or no clouds below 12,000 feet with no
significant weather and/or obstructions to visibility.


ACROSS SOUTHEAST TEXAS

CITY           SKY/WX    TMP DP  RH WIND       PRES   REMARKS
BEAUMONT       CLEAR     65  56  72 NE9       30.08R
BEAUMONT CITY    N/A     60  56  84 NE5       30.10R
ORANGE         SUNNY     63  55  76 N8        30.11R
JASPER         CLEAR     60  54  81 NE3       30.14S
$$

ACROSS CENTRAL LOUISIANA

CITY           SKY/WX    TMP DP  RH WIND       PRES   REMARKS
LEESVILLE      CLEAR     60  55  82 NE5       30.12R
FULLERTON        N/A     58  54  86 CALM      30.11R
ALEXANDRIA INT CLEAR     58  54  86 CALM      30.11R
ESLER FIELD    CLEAR     58  54  86 CALM      30.12S
DERIDDER         N/A     60  55  82 CALM      30.14R
OAKDALE        SUNNY     59  55  87 N3        30.12R
OPELOUSAS        N/A     58  56  92 NE5       30.10R
$$

ACROSS SOUTHWEST AND SOUTH CENTRAL LOUISIANA

CITY           SKY/WX    TMP DP  RH WIND       PRES   REMARKS
SULPHUR        SUNNY     66  56  69 NE8       30.10R
LAKE CHARLES   CLEAR     63  56  78 NE13      30.08R
CHENNAULT INT  CLEAR     61  55  82 NE8       30.10R
CAMERON PHI      N/A     64  59  82 NE12      30.10S
DEQUINCY         N/A     60  55  83 N3        30.11R
JENNINGS         N/A     58  56  92 N5        30.10R
LAFAYETTE      CLEAR     60  57  89 NE7       30.08R
NEW IBERIA     CLEAR     64  57  78 NE10      30.08R
ABBEVILLE        N/A     60  56  89 N3        30.08R
PATTERSON      CLEAR     63  57  82 NE7       30.08R
SALT POINT       N/A     67  60  78 VRB5      30.05R
$$

SELECTED SITES ACROSS THE REGION

CITY           SKY/WX    TMP DP  RH WIND       PRES   REMARKS
HOUSTON BUSH   PTCLDY    66  56  70 NE7       30.10R
HOUSTON HOBBY  PTCLDY    67  57  70 NE9       30.08R
GALVESTON      CLEAR     71  62  73 NE14      30.07R
COLLEGE STAT   CLEAR     64  56  75 NE6       30.12R
CONROE         CLEAR     63  55  75 N5        30.12R
HUNTSVILLE     CLEAR     59  56  89 CALM      30.13R
LUFKIN         CLEAR     62  54  74 N6        30.14R
SHREVEPORT     CLEAR     60  52  74 N6        30.17R
MONROE         CLEAR     58  53  84 NE3       30.16R
NATCHEZ MS     CLEAR     57  52  82 NE3       30.13S
BATON ROUGE    CLEAR     60  53  77 NE8       30.09R
N.O. INTL ARPT CLEAR     71  56  58 NE15      30.06R
SLIDELL        CLEAR     58  54  86 N3        30.08R
$$

MARINE REPORTS

STATION/POSITION TIME  TEMP    WIND        PRES    VSBY  WAVE
                       AIR SEA DIR/SP/G                  HT/PER
                 (UTC) (F)     (DEG/KT/KT) (MB)    (MI)  (FT/S)
BUOY 30 S HIGH I 1100   76 83   50/ 17/ 19 1017.0R         5/ 6
SEA RIM ST PARK  1100   67      50/  9/ 11 1019.1R
PORT ARTHUR      1100      83   50/  3/  6 1018.8R
SABINE PASS N    1100   66 82   30/  8/ 10 1018.6R
TEXAS POINT      1100   66 82   20/  9/ 10 1018.5R
CALCASIEU PASS   1100   65 82   60/  9/ 11 1019.2R
LK CHARLES BEACH 1100   64 82              1018.9R
MARSH ISLAND     NOT AVBL
FRESH WATER LOCK 1100   66 83   10/  7/ 10 1017.6R
AMERADA PASS     1100   68 80   60/  4/  8 1017.3R
$$


USA.gov is the U.S. government's official web portal to all federal, state and local government web resources and services.